Regional Weather Roundup
Issued by NWS

Home | Current Version | Previous Version | Graphics & Text | Print | Product List | Glossary On
Versions: 1 2 3 4 5 6 7 8 9 10 11 12 13 14 15 16 17 18 19 20 21 22 23 24 25 26 27 28 29 30 31 32 33 34 35 36 37 38 39 40 41 42 43 44 45 46 47 48 49 50
000
ASUS45 KTFX 221610
RWRMT
MONTANA REGIONAL WEATHER ROUNDUP
NATIONAL WEATHER SERVICE GREAT FALLS MT
900 AM MST THU FEB 22 2018

NOTE: "FAIR" INDICATES FEW OR NO CLOUDS BELOW 12000 FEET WITH NO
SIGNIFICANT WEATHER AND/OR OBSTRUCTIONS TO VISIBILITY.

MTZ001>007-043-221700-
WEST OF THE DIVIDE

CITY           SKY/WX    TMP DP  RH WIND       PRES   REMARKS
KALISPELL      FAIR      11   3  70 N10       30.12S WCI  -3
MISSOULA       CLOUDY    11   5  77 NW3       30.09R
BUTTE          FAIR       0  -5  79 CALM      29.92R
MULLAN PASS    FAIR       7   4  87 SE9       29.85R WCI  -7
ANACONDA         N/A      7   0  72 CALM      29.97
DEER LODGE       N/A      3   0  85 CALM      30.02R
HAMILTON         N/A     12   7  79 MISG      30.05R
PLAINS           N/A      5  -7  58 CALM      30.15R
RONAN            N/A      5   1  85 CALM      30.14R
$$

MTZ008-052>055-221700-
SOUTHWEST MONTANA

CITY           SKY/WX    TMP DP  RH WIND       PRES   REMARKS
BOZEMAN        FAIR       3  -2  79 CALM      30.02R
DILLON         CLOUDY     4   3  96 CALM      29.93R
ENNIS          MOSUNNY   16   5  62 N3        29.95F
W YELLOWSTONE  PTSUNNY    1  -2  85 CALM      29.91S FOG
THREE FORKS      N/A      4  -2  76 CALM      30.01R
TWIN BRIDGES     N/A      8  -1  66 CALM      29.94S
$$

MTZ009-010-012-014-046-048-049-054-221700-
EAST SLOPES AND CENTRAL MONTANA

CITY           SKY/WX    TMP DP  RH WIND       PRES   REMARKS
CUT BANK       FAIR       2  -5  72 N8        30.13R WCI -12
GREAT FALLS    FAIR       1  -7  68 W5        30.13R
HELENA         CLOUDY     4   0  83 CALM      30.09R
CHOTEAU          N/A      3  -8  60 W6        30.14R WCI  -8
CONRAD           N/A      8  -2  64 W14       30.14R WCI  -8
WHITE SULPHUR    N/A      1  -4  78 SW3       29.99S
$$

MTZ011-013-016-021-045-047-050-051-221700-
NORTH CENTRAL MONTANA

CITY           SKY/WX    TMP DP  RH WIND       PRES   REMARKS
HAVRE          FAIR     -15 -21  74 W10       30.23R WCI -35
LEWISTOWN      FAIR      -2  -5  87 S5        30.07R
N BAR RANCH    FAIR       3  -8  60 CALM      30.07R
CHINOOK          N/A    -17 -22  76 NW3       30.26R
$$

MTZ017>020-022>027-061-062-221700-
NORTHEAST MONTANA

CITY           SKY/WX    TMP DP  RH WIND       PRES   REMARKS
GLASGOW        FAIR     -18 -23  77 NW6       30.23R WCI -33
GLENDIVE       FAIR      -5 -15  62 S3        30.21S
JORDAN           N/A    -18 -23  77 NW5       30.18R
MALTA          MOSUNNY  -24 -29  76 SW7       30.24S WCI -42
SIDNEY         FAIR      -8 -14  74 S9        30.26R WCI -25
WOLF POINT     FAIR     -16 -22  74 SW7       30.27R WCI -32
PLENTYWOOD       N/A      0  -8  71 CALM      30.21R
POPLAR           N/A    -11 -18  70 CALM      30.27R
SCOBEY           N/A    -13 -23  61 S2        30.15R
$$

MTZ028>42-056>058-221700-
SOUTHCENTRAL AND SOUTHEAST MONTANA

CITY           SKY/WX    TMP DP  RH WIND       PRES   REMARKS
BAKER          FAIR      -9 -14  78 SE5       30.17R
BILLINGS       FAIR       2  -4  76 SW3       30.09R
LIVINGSTON     CLOUDY     3  -2  79 NW6       30.01R WCI  -8
MILES CITY     FAIR     -17 -17 100 SW3       30.20R
BIG TIMBER     CLOUDY     1  -4  78 W3        30.06R
EKALAKA          N/A     17  -3  41 SE8       30.07R WCI   7
FORSYTH          N/A     -9 -17  70 CALM      30.19R
LAUREL           N/A      1  -9  60 CALM      30.11S
$$

REGIONAL REPORTS...DAKOTAS

CITY           SKY/WX    TMP DP  RH WIND       PRES   REMARKS
WILLISTON      FAIR      -6 -12  75 SW3       30.26R
MINOT          FAIR       5  -5  63 S5        30.27R
DICKINSON      FAIR       2  -7  66 SW3       30.18S
BEACH          FAIR       0  -8  71 S7        30.21R WCI -13
CROSBY         FAIR      -4 -11  71 S16G22    30.22S WCI -25
TIOGA          FAIR      -8 -11  84 CALM      30.23S
WATFORD CITY   FAIR      -4 -11  71 CALM      30.25R
BISMARCK       FAIR       1  -6  72 CALM      30.33S
GRAND FORKS    FAIR       2  -3  80 S16       30.44S WCI -18
FARGO          FAIR      11   3  70 S17       30.46S WCI  -6
BUFFALO SD       N/A     -1  -8  72 CALM      30.06F
RAPID CITY     FAIR       5  -2  72 CALM      30.13F
$$

REGIONAL REPORTS...WYOMING/IDAHO/WASHINGTON

CITY           SKY/WX    TMP DP  RH WIND       PRES   REMARKS
GILLETTE       FAIR       4  -7  60 CALM      30.04S
SHERIDAN       FAIR       0  -7  72 CALM      30.06S
BUFFALO WY     FAIR      18  -2  41 W8        30.01S WCI   8
CODY           FAIR      17   0  47 VRB7      29.99F WCI   8
YELLOWSTONE LA   N/A     -4  -8  83 CALM      29.90S
IDAHO FALLS    FAIR      19   9  65 CALM      29.97S
SALMON         CLOUDY    22  18  85 CALM      29.96S
BOISE          LGT SNOW  24  22  91 NW9       29.97R FOG     WCI  14
SPOKANE        FLURRIES  16  12  84 N8        30.11R WCI   5
$$

REGIONAL REPORTS...ALBERTA

CITY           SKY/WX    TMP DP  RH WIND       PRES   REMARKS
CALGARY        CLOUDY    12   1  62 W6        30.15R WCI   3
CARDSTON         N/A     12   5  73 W1          N/A
EDMONTON       MOSUNNY   18  10  73 W7        30.17R WCI   8
FORT MCMURRAY  CLOUDY    19  12  73 W13       30.05R WCI   7
HIGH LEVEL     MOCLDY    12   9  85 CALM      30.08S
LETHBRIDGE     CLOUDY     5   0  78 W9        30.20R WCI  -9
LLOYDMINSTER   PTSUNNY   10   7  85 W13       30.10R WCI  -5
MEDICINE HAT   FLURRIES   0  -8  71 S9        30.23R WCI -16
MILK RIVER       N/A     10   3  72 NW8         N/A  WCI  -1
ONEFOUR          N/A      0  -4  85 NW20        N/A  WCI -22
PEACE RIVER    PTCLDY    12   5  73 W12       30.16S WCI  -2
PINCHER CREEK  FLURRIES   7   3  85 W8        30.15R WCI  -6
WATERTON GATE    N/A      7   3  85 CALM        N/A
$$

REGIONAL REPORTS...SASKATCHEWAN

CITY           SKY/WX    TMP DP  RH WIND       PRES   REMARKS
ESTEVAN        MOSUNNY    0  -9  65 S10       30.22R WCI -17
MOOSE JAW        N/A      0  -8  71 SW9         N/A  WCI -16
PRINCE ALBERT  MOSUNNY   -6 -13  71 SW7       30.13R WCI -20
REGINA         MOSUNNY   -6 -11  77 S8        30.18S WCI -21
ROCKGLEN         N/A      0  -8  71 W9          N/A  WCI -16
SASKATOON      MOSUNNY   -6 -13  71 SW10      30.15S WCI -23
SWIFT CURRENT  MOSUNNY    1  -8  66 W16G22    30.12R WCI -18
$$



USA.gov is the U.S. government's official web portal to all federal, state and local government web resources and services.